,,,PA_Meas_PMT16A,,PR_Meas_QMR101_102,,RH_Meas_QMH101,,SR_Meas_QMS101,,TA_Meas_QMH101,,GenWind,,GenWind,
date,time,status,PA,status,PR,status,RH,status,SR,status,TA,status,DirAvg,status,SpdAvg,
2010-07-24, 00:00:05,VALID,1003.67,VALID,0,VALID,83.6888,VALID,0,VALID,26.0596,VALID,3,VALID,1.02461,
2010-07-24, 00:01:05,VALID,1003.66,VALID,0,VALID,83.7498,VALID,0,VALID,26.0187,VALID,357,VALID,0.994531,
2010-07-24, 00:02:05,VALID,1003.59,VALID,0,VALID,83.8414,VALID,0,VALID,25.9992,VALID,17,VALID,0.966406,
2010-07-24, 00:03:05,VALID,1003.58,VALID,0,VALID,83.8567,VALID,0,VALID,26.0187,VALID,34,VALID,1.13945,
2010-07-24, 00:04:05,VALID,1003.58,VALID,0,VALID,83.9482,VALID,0,VALID,25.9992,VALID,360,VALID,1.07617,
2010-07-24, 00:05:05,VALID,1003.58,VALID,0,VALID,84.0931,VALID,0,VALID,25.9602,VALID,345,VALID,1.23945,
2010-07-24, 00:06:05,VALID,1003.55,VALID,0,VALID,84.1313,VALID,0.100563,VALID,25.9602,VALID,351,VALID,1.38359,
2010-07-24, 00:07:05,VALID,1003.57,VALID,0,VALID,84.261,VALID,0,VALID,25.9602,VALID,2,VALID,1.01172,
2010-07-24, 00:08:05,VALID,1003.58,VALID,0,VALID,84.2228,VALID,0,VALID,26.0206,VALID,19,VALID,1.53242,
2010-07-24, 00:09:05,VALID,1003.61,VALID,0,VALID,83.9329,VALID,0,VALID,26.0576,VALID,348,VALID,0.912891,
2010-07-24, 00:10:05,VALID,1003.61,VALID,0,VALID,84.0321,VALID,0,VALID,26.0381,VALID,3,VALID,0.994531,
2010-07-24, 00:11:05,VALID,1003.6,VALID,0,VALID,84.2686,VALID,0,VALID,26.0206,VALID,5,VALID,0.929688,
2010-07-24, 00:12:05,VALID,1003.56,VALID,0,VALID,84.6043,VALID,0,VALID,25.9408,VALID,1,VALID,0.737891,
2010-07-24, 00:13:05,VALID,1003.57,VALID,0,VALID,84.856,VALID,0,VALID,25.9038,VALID,6,VALID,1.02813,
2010-07-24, 00:14:05,VALID,1003.55,VALID,0,VALID,84.8789,VALID,0,VALID,25.8629,VALID,355,VALID,2.2918,
2010-07-24, 00:15:05,VALID,1003.57,VALID,0,VALID,84.5585,VALID,0,VALID,25.9622,VALID,12,VALID,1.15859,
2010-07-24, 00:16:05,VALID,1003.62,VALID,0,VALID,84.3525,VALID,0,VALID,26.0206,VALID,29,VALID,1.04531,
2010-07-24, 00:17:05,VALID,1003.63,VALID,0,VALID,84.4059,VALID,0,VALID,26.0206,VALID,5,VALID,0.959375,
2010-07-24, 00:18:05,VALID,1003.63,VALID,0,VALID,84.5509,VALID,0,VALID,26.0012,VALID,21,VALID,0.880469,
2010-07-24, 00:19:05,VALID,1003.6,VALID,0,VALID,84.7416,VALID,0,VALID,25.9622,VALID,359,VALID,0.868359,
2010-07-24, 00:20:05,VALID,1003.58,VALID,0,VALID,84.7416,VALID,0.100563,VALID,25.9408,VALID,2,VALID,1.10273,
2010-07-24, 00:21:05,VALID,1003.58,VALID,0,VALID,84.589,VALID,0,VALID,26.0012,VALID,10,VALID,0.927344,
2010-07-24, 00:22:05,VALID,1003.57,VALID,0,VALID,84.3983,VALID,0,VALID,25.9817,VALID,354,VALID,1.43047,
2010-07-24, 00:23:05,VALID,1003.56,VALID,0,VALID,84.1313,VALID,0,VALID,26.0381,VALID,22,VALID,1.47148,
2010-07-24, 00:24:05,VALID,1003.53,VALID,0,VALID,83.7575,VALID,0,VALID,26.1355,VALID,7,VALID,1.29961,
2010-07-24, 00:25:05,VALID,1003.55,VALID,0,VALID,83.643,VALID,0,VALID,26.157,VALID,9,VALID,1.31836,
2010-07-24, 00:26:05,VALID,1003.58,VALID,0,VALID,83.6507,VALID,0,VALID,26.116,VALID,3,VALID,1.3082,
2010-07-24, 00:27:05,VALID,1003.57,VALID,0,VALID,83.9863,VALID,0,VALID,26.0966,VALID,12,VALID,0.905469,
2010-07-24, 00:28:05,VALID,1003.62,VALID,0,VALID,84.055,VALID,0,VALID,26.0791,VALID,19,VALID,1.22109,
2010-07-24, 00:29:05,VALID,1003.61,VALID,0,VALID,84.0779,VALID,0,VALID,26.0791,VALID,12,VALID,0.785937,
2010-07-24, 00:30:05,VALID,1003.66,VALID,0,VALID,84.1771,VALID,0,VALID,26.0576,VALID,357,VALID,1.16445,
2010-07-24, 00:31:05,VALID,1003.71,VALID,0,VALID,84.3907,VALID,0,VALID,26.0596,VALID,34,VALID,0.839453,
2010-07-24, 00:32:05,VALID,1003.73,VALID,0,VALID,84.6501,VALID,0,VALID,25.9797,VALID,20,VALID,1.00937,
2010-07-24, 00:33:05,VALID,1003.71,VALID,0,VALID,84.8026,VALID,0,VALID,25.9408,VALID,27,VALID,0.960156,
2010-07-24, 00:34:05,VALID,1003.68,VALID,0,VALID,84.8103,VALID,0,VALID,25.9232,VALID,1,VALID,1.31797,
2010-07-24, 00:35:05,VALID,1003.64,VALID,0,VALID,84.9171,VALID,0,VALID,25.9427,VALID,20,VALID,1.26094,
2010-07-24, 00:36:05,VALID,1003.65,VALID,0,VALID,84.8179,VALID,0,VALID,25.9427,VALID,9,VALID,0.669531,
2010-07-24, 00:37:05,VALID,1003.6,VALID,0,VALID,84.2762,VALID,0,VALID,25.9427,VALID,15,VALID,1.62539,
2010-07-24, 00:38:05,VALID,1003.54,VALID,0,VALID,84.0931,VALID,0,VALID,25.9992,VALID,28,VALID,0.828516,
2010-07-24, 00:39:05,VALID,1003.57,VALID,0,VALID,84.1389,VALID,0,VALID,25.9992,VALID,355,VALID,0.716016,
2010-07-24, 00:40:05,VALID,1003.54,VALID,0,VALID,84.1771,VALID,0,VALID,25.9992,VALID,13,VALID,0.861328,
2010-07-24, 00:41:05,VALID,1003.48,VALID,0,VALID,84.261,VALID,0,VALID,25.9797,VALID,350,VALID,0.969531,
2010-07-24, 00:42:05,VALID,1003.45,VALID,0,VALID,83.9024,VALID,0,VALID,25.9797,VALID,346,VALID,0.995703,
2010-07-24, 00:43:05,VALID,1003.42,VALID,0,VALID,84.0474,VALID,0,VALID,25.9992,VALID,346,VALID,0.430469,
2010-07-24, 00:44:05,VALID,1003.41,VALID,0,VALID,84.3525,VALID,0,VALID,26.0012,VALID,347,VALID,0.183203,
2010-07-24, 00:45:05,VALID,1003.42,VALID,0,VALID,84.4975,VALID,0,VALID,25.9408,VALID,356,VALID,0.821875,
2010-07-24, 00:46:05,VALID,1003.46,VALID,0,VALID,84.8637,VALID,0,VALID,25.8823,VALID,357,VALID,0.789453,
2010-07-24, 00:47:05,VALID,1003.47,VALID,0,VALID,85.2756,VALID,0,VALID,25.8473,VALID,1,VALID,0.794141,
2010-07-24, 00:48:05,VALID,1003.47,VALID,0,VALID,85.6952,VALID,0,VALID,25.7674,VALID,1,VALID,0.69375,
2010-07-24, 00:49:05,VALID,1003.44,VALID,0,VALID,86.0538,VALID,0,VALID,25.6895,VALID,357,VALID,0.789844,
2010-07-24, 00:50:05,VALID,1003.46,VALID,0,VALID,86.4428,VALID,0,VALID,25.6292,VALID,341,VALID,0.789844,
2010-07-24, 00:51:05,VALID,1003.46,VALID,0,VALID,86.8777,VALID,0,VALID,25.5707,VALID,351,VALID,0.755078,
2010-07-24, 00:52:05,VALID,1003.45,VALID,0,VALID,87.4041,VALID,0,VALID,25.4948,VALID,350,VALID,0.635156,
2010-07-24, 00:53:05,VALID,1003.45,VALID,0,VALID,88.0754,VALID,0,VALID,25.4149,VALID,346,VALID,0.732422,
2010-07-24, 00:54:05,VALID,1003.44,VALID,0,VALID,88.8154,VALID,0,VALID,25.3565,VALID,352,VALID,0.784375,
2010-07-24, 00:55:05,VALID,1003.43,VALID,0,VALID,89.8224,VALID,0,VALID,25.3,VALID,350,VALID,1.24453,
2010-07-24, 00:56:05,VALID,1003.43,VALID,0,VALID,94.148,VALID,0,VALID,25.2202,VALID,351,VALID,0.938672,
2010-07-24, 00:57:05,VALID,1003.44,VALID,0,VALID,101.518,VALID,0,VALID,25.1832,VALID,351,VALID,1.20977,
2010-07-24, 00:58:05,VALID,1003.43,VALID,0,VALID,104,VALID,0,VALID,25.1229,VALID,360,VALID,1.25625,
2010-07-24, 00:59:05,VALID,1003.42,VALID,0,VALID,104,VALID,0,VALID,25.1248,VALID,358,VALID,1.07813,
2010-07-24, 01:00:05,VALID,1003.37,VALID,0,VALID,104,VALID,0,VALID,25.1248,VALID,358,VALID,1.13906,
2010-07-24, 01:01:05,VALID,1003.32,VALID,0,VALID,104,VALID,0,VALID,25.1229,VALID,354,VALID,1.17891,
2010-07-24, 01:02:05,VALID,1003.3,VALID,0,VALID,104,VALID,0,VALID,25.1637,VALID,359,VALID,1.13477,
2010-07-24, 01:03:05,VALID,1003.3,VALID,0,VALID,104,VALID,0,VALID,25.2027,VALID,1,VALID,1.34922,
2010-07-24, 01:04:05,VALID,1003.32,VALID,0,VALID,103.829,VALID,0,VALID,25.2202,VALID,9,VALID,1.29648,
2010-07-24, 01:05:05,VALID,1003.35,VALID,0,VALID,97.6649,VALID,0,VALID,25.3195,VALID,17,VALID,1.17344,
2010-07-24, 01:06:05,VALID,1003.35,VALID,0,VALID,92.607,VALID,0,VALID,25.376,VALID,6,VALID,1.07031,
2010-07-24, 01:07:05,VALID,1003.36,VALID,0,VALID,90.3565,VALID,0,VALID,25.4928,VALID,14,VALID,1.15781,
2010-07-24, 01:08:05,VALID,1003.32,VALID,0,VALID,88.5789,VALID,0,VALID,25.5902,VALID,9,VALID,1.40898,
2010-07-24, 01:09:05,VALID,1003.32,VALID,0,VALID,87.6177,VALID,0,VALID,25.6895,VALID,6,VALID,1.66523,
2010-07-24, 01:10:05,VALID,1003.32,VALID,0,VALID,86.9311,VALID,0,VALID,25.7655,VALID,16,VALID,1.59219,
2010-07-24, 01:11:05,VALID,1003.31,VALID,0,VALID,86.5573,VALID,0,VALID,25.8434,VALID,8,VALID,1.51641,
2010-07-24, 01:12:05,VALID,1003.35,VALID,0,VALID,86.2064,VALID,0,VALID,25.8823,VALID,10,VALID,1.41992,
2010-07-24, 01:13:05,VALID,1003.34,VALID,0,VALID,85.6647,VALID,0,VALID,25.9602,VALID,1,VALID,2.27969,
2010-07-24, 01:14:05,VALID,1003.39,VALID,0,VALID,85.3061,VALID,0,VALID,26.0381,VALID,14,VALID,1.98672,
2010-07-24, 01:15:05,VALID,1003.37,VALID,0,VALID,85.0849,VALID,0,VALID,26.0771,VALID,10,VALID,1.60586,
2010-07-24, 01:16:05,VALID,1003.33,VALID,0,VALID,84.9018,VALID,0,VALID,26.118,VALID,15,VALID,1.67695,
2010-07-24, 01:17:05,VALID,1003.38,VALID,0,VALID,84.6119,VALID,0,VALID,26.157,VALID,25,VALID,2.24414,
2010-07-24, 01:18:05,VALID,1003.41,VALID,0,VALID,84.2762,VALID,0,VALID,26.2154,VALID,8,VALID,2.51523,
2010-07-24, 01:19:05,VALID,1003.34,VALID,0,VALID,83.8414,VALID,0,VALID,26.2349,VALID,30,VALID,2.25078,
2010-07-24, 01:20:05,VALID,1003.36,VALID,0,VALID,83.0327,VALID,0,VALID,26.155,VALID,351,VALID,3.34141,
2010-07-24, 01:21:05,VALID,1003.34,VALID,0,VALID,83.2845,VALID,0,VALID,26.0966,VALID,353,VALID,3.05781,
2010-07-24, 01:22:05,VALID,1003.4,VALID,0,VALID,83.9482,VALID,0,VALID,25.9622,VALID,358,VALID,2.79102,
2010-07-24, 01:23:05,VALID,1003.41,VALID,0,VALID,84.2762,VALID,0,VALID,25.8239,VALID,17,VALID,3.77187,
2010-07-24, 01:24:05,VALID,1003.46,VALID,0,VALID,84.4364,VALID,0,VALID,25.7285,VALID,27,VALID,2.96016,
2010-07-24, 01:25:05,VALID,1003.48,VALID,0,VALID,84.6806,VALID,0,VALID,25.6486,VALID,7,VALID,2.92148,
2010-07-24, 01:26:05,VALID,1003.45,VALID,0,VALID,84.5433,VALID,0,VALID,25.5902,VALID,357,VALID,2.47031,
2010-07-24, 01:27:04,VALID,1003.5,VALID,0,VALID,84.9934,VALID,0,VALID,25.5318,VALID,26,VALID,2.04414,
2010-07-24, 01:28:04,VALID,1003.45,VALID,0,VALID,85.1993,VALID,0,VALID,25.5337,VALID,5,VALID,1.21367,
2010-07-24, 01:29:04,VALID,1003.46,VALID,0,VALID,85.4206,VALID,0,VALID,25.4539,VALID,11,VALID,1.2207,
2010-07-24, 01:30:04,VALID,1003.49,VALID,0,VALID,85.6952,VALID,0,VALID,25.4169,VALID,30,VALID,0.8875,
2010-07-24, 01:31:04,VALID,1003.44,VALID,0,VALID,85.8936,VALID,0,VALID,25.337,VALID,1,VALID,1.3707,
2010-07-24, 01:32:04,VALID,1003.38,VALID,0,VALID,85.5655,VALID,0,VALID,25.3195,VALID,7,VALID,2.2832,
2010-07-24, 01:33:04,VALID,1003.32,VALID,0,VALID,85.8631,VALID,0,VALID,25.2592,VALID,13,VALID,1.82539,
2010-07-24, 01:34:04,VALID,1003.3,VALID,0,VALID,85.7257,VALID,0,VALID,25.2611,VALID,5,VALID,3.17305,
2010-07-24, 01:35:04,VALID,1003.25,VALID,0,VALID,86.1377,VALID,0,VALID,25.2221,VALID,18,VALID,1.6207,
2010-07-24, 01:36:04,VALID,1003.23,VALID,0,VALID,86.4047,VALID,0,VALID,25.1442,VALID,33,VALID,1.32187,
2010-07-24, 01:37:04,VALID,1003.28,VALID,0,VALID,86.6946,VALID,0,VALID,25.1053,VALID,10,VALID,1.88008,
2010-07-24, 01:38:04,VALID,1003.31,VALID,0,VALID,86.6641,VALID,0,VALID,25.0274,VALID,21,VALID,1.47266,
2010-07-24, 01:39:04,VALID,1003.33,VALID,0,VALID,87.2439,VALID,0,VALID,24.9671,VALID,353,VALID,1.17266,
2010-07-24, 01:40:04,VALID,1003.39,VALID,0,VALID,87.2668,VALID,0,VALID,24.9106,VALID,34,VALID,1.71133,
2010-07-24, 01:41:04,VALID,1003.42,VALID,0,VALID,88.0449,VALID,0,VALID,24.8113,VALID,28,VALID,1.60898,
2010-07-24, 01:42:04,VALID,1003.44,VALID,0,VALID,88.2204,VALID,0,VALID,24.7353,VALID,40,VALID,2.82305,
2010-07-24, 01:43:04,VALID,1003.43,VALID,0,VALID,88.5942,VALID,0,VALID,24.675,VALID,21,VALID,2.19883,
2010-07-24, 01:44:04,VALID,1003.42,VALID,0,VALID,89.235,VALID,0,VALID,24.638,VALID,25,VALID,2.51719,
2010-07-24, 01:45:04,VALID,1003.43,VALID,0,VALID,90.0589,VALID,0,VALID,24.5777,VALID,14,VALID,1.68203,
2010-07-24, 01:46:04,VALID,1003.41,VALID,0,VALID,93.141,VALID,0.100563,VALID,24.5582,VALID,28,VALID,2.24688,
2010-07-24, 01:47:04,VALID,1003.4,VALID,0.5,VALID,97.3369,VALID,0.100563,VALID,24.459,VALID,25,VALID,2.37617,
2010-07-24, 01:48:04,VALID,1003.33,VALID,0,VALID,104,VALID,0.100563,VALID,24.383,VALID,8,VALID,2.44766,
2010-07-24, 01:49:04,VALID,1003.26,VALID,0.5,VALID,104,VALID,0.100563,VALID,24.3228,VALID,9,VALID,2.39023,
2010-07-24, 01:50:04,VALID,1003.15,VALID,0,VALID,104,VALID,0,VALID,24.2644,VALID,358,VALID,2.27187,
2010-07-24, 01:51:04,VALID,1003.03,VALID,0.5,VALID,104,VALID,0.100563,VALID,24.2273,VALID,359,VALID,2.65039,
2010-07-24, 01:52:04,VALID,1003.06,VALID,0.5,VALID,104,VALID,0.100563,VALID,24.1884,VALID,8,VALID,2.83086,
2010-07-24, 01:53:04,VALID,1003.11,VALID,0,VALID,104,VALID,0.100563,VALID,24.1494,VALID,23,VALID,1.54766,
2010-07-24, 01:54:04,VALID,1003.13,VALID,0,INVALID,109.124,VALID,0.100563,VALID,24.1087,VALID,25,VALID,1.97461,
2010-07-24, 01:55:04,VALID,1003.12,VALID,0,INVALID,109.238,VALID,0.100563,VALID,24.1087,VALID,17,VALID,1.35586,
2010-07-24, 01:56:04,VALID,1003.13,VALID,0.5,VALID,104,VALID,0.100563,VALID,23.9919,VALID,16,VALID,2.51211,
2010-07-24, 01:57:04,VALID,1003.13,VALID,0,VALID,104,VALID,0.100563,VALID,24.0503,VALID,27,VALID,1.22148,
2010-07-24, 01:58:04,VALID,1003.07,VALID,0,VALID,104,VALID,0.100563,VALID,24.0521,VALID,22,VALID,2.10586,
2010-07-24, 01:59:04,VALID,1003.07,VALID,0,VALID,104,VALID,0.100563,VALID,24.0892,VALID,21,VALID,1.22422,
2010-07-24, 02:00:04,VALID,1003.08,VALID,0,VALID,104,VALID,0.201126,VALID,24.13,VALID,21,VALID,1.0125,
2010-07-24, 02:01:04,VALID,1003.06,VALID,0,VALID,104,VALID,0,VALID,24.13,VALID,26,VALID,0.676562,
2010-07-24, 02:02:04,VALID,1003.07,VALID,0,VALID,104,VALID,0,VALID,24.1105,VALID,27,VALID,1.17891,
2010-07-24, 02:03:04,VALID,1003.04,VALID,0,INVALID,109.093,VALID,0,VALID,24.1318,VALID,25,VALID,0.761328,
2010-07-24, 02:04:04,VALID,1003,VALID,0,INVALID,109.23,VALID,0,VALID,24.13,VALID,50,VALID,0.720703,
2010-07-24, 02:05:04,VALID,1002.99,VALID,0,INVALID,109.284,VALID,0,VALID,24.13,VALID,26,VALID,0.678516,
2010-07-24, 02:06:04,VALID,1002.94,VALID,0,INVALID,109.345,VALID,0,VALID,24.13,VALID,25,VALID,0.312109,
2010-07-24, 02:07:04,VALID,1002.95,VALID,0,INVALID,109.368,VALID,0.100563,VALID,24.1105,VALID,74,VALID,0.3,
2010-07-24, 02:08:04,VALID,1002.94,VALID,0,INVALID,109.383,VALID,0,VALID,24.091,VALID,46,VALID,0.203516,
2010-07-24, 02:09:04,VALID,1002.99,VALID,0,INVALID,109.421,VALID,0,VALID,24.0929,VALID,26,VALID,0.252344,
2010-07-24, 02:10:04,VALID,1002.98,VALID,0,INVALID,109.421,VALID,0,VALID,24.0521,VALID,26,VALID,0.2,
2010-07-24, 02:11:04,VALID,1002.99,VALID,0,INVALID,109.452,VALID,0,VALID,24.0539,VALID,28,VALID,0.501562,
2010-07-24, 02:12:04,VALID,1002.99,VALID,0,INVALID,109.467,VALID,0,VALID,24.0326,VALID,29,VALID,0.25625,
2010-07-24, 02:13:04,VALID,1003,VALID,0,INVALID,109.467,VALID,0,VALID,24.0132,VALID,42,VALID,0.516406,
2010-07-24, 02:14:04,VALID,1003.04,VALID,0,INVALID,109.467,VALID,0,VALID,23.9937,VALID,42,VALID,0.535156,
2010-07-24, 02:15:04,VALID,1003,VALID,0,INVALID,109.497,VALID,0,VALID,23.9937,VALID,37,VALID,0.999609,
2010-07-24, 02:16:04,VALID,1003,VALID,0,INVALID,109.513,VALID,0,VALID,23.9919,VALID,64,VALID,0.449609,
2010-07-24, 02:17:04,VALID,1002.98,VALID,0,INVALID,109.551,VALID,0,VALID,24.0114,VALID,4,VALID,1.79062,
2010-07-24, 02:18:04,VALID,1002.97,VALID,0,INVALID,109.513,VALID,0,VALID,24.0716,VALID,27,VALID,1.7125,
2010-07-24, 02:19:04,VALID,1002.92,VALID,0,INVALID,109.268,VALID,0,VALID,24.1494,VALID,3,VALID,1.18125,
2010-07-24, 02:20:04,VALID,1002.89,VALID,0,INVALID,109.001,VALID,0,VALID,24.1689,VALID,13,VALID,0.918359,
2010-07-24, 02:21:04,VALID,1002.89,VALID,0,VALID,104,VALID,0,VALID,24.1689,VALID,20,VALID,1.59023,
2010-07-24, 02:22:04,VALID,1002.87,VALID,0,VALID,104,VALID,0,VALID,24.2078,VALID,2,VALID,1.06055,
2010-07-24, 02:23:04,VALID,1002.85,VALID,0,VALID,104,VALID,0.100563,VALID,24.2273,VALID,1,VALID,1.15195,
2010-07-24, 02:24:04,VALID,1002.84,VALID,0,VALID,104,VALID,0,VALID,24.2273,VALID,5,VALID,1.45117,
2010-07-24, 02:25:04,VALID,1002.81,VALID,0,VALID,104,VALID,0,VALID,24.2681,VALID,360,VALID,2.48398,
2010-07-24, 02:26:04,VALID,1002.82,VALID,0,VALID,96.0247,VALID,0.100563,VALID,24.3459,VALID,26,VALID,2.26016,
2010-07-24, 02:27:04,VALID,1002.84,VALID,0,VALID,92.7672,VALID,0,VALID,24.383,VALID,15,VALID,1.46523,
2010-07-24, 02:28:04,VALID,1002.81,VALID,0,VALID,91.8822,VALID,0,VALID,24.4025,VALID,357,VALID,1.48164,
2010-07-24, 02:29:04,VALID,1002.8,VALID,0,VALID,91.7602,VALID,0,VALID,24.4025,VALID,13,VALID,1.38398,
2010-07-24, 02:30:04,VALID,1002.77,VALID,0,VALID,91.1575,VALID,0,VALID,24.422,VALID,354,VALID,1.75898,
2010-07-24, 02:31:04,VALID,1002.73,VALID,0,VALID,90.3793,VALID,0,VALID,24.4396,VALID,360,VALID,1.92148,
2010-07-24, 02:32:04,VALID,1002.73,VALID,0,VALID,89.1435,VALID,0,VALID,24.5582,VALID,2,VALID,1.65,
2010-07-24, 02:33:04,VALID,1002.74,VALID,0,VALID,89.1587,VALID,0,VALID,24.5777,VALID,18,VALID,1.09102,
2010-07-24, 02:34:04,VALID,1002.8,VALID,0,VALID,88.9451,VALID,0,VALID,24.6556,VALID,14,VALID,1.71055,
2010-07-24, 02:35:04,VALID,1002.79,VALID,0,VALID,88.6476,VALID,0,VALID,24.6556,VALID,2,VALID,1.81719,
2010-07-24, 02:36:04,VALID,1002.82,VALID,0,VALID,88.7086,VALID,0,VALID,24.6945,VALID,11,VALID,1.20078,
2010-07-24, 02:37:04,VALID,1002.84,VALID,0,VALID,88.5408,VALID,0,VALID,24.675,VALID,26,VALID,1.48008,
2010-07-24, 02:38:04,VALID,1002.86,VALID,0,VALID,88.3119,VALID,0,VALID,24.6945,VALID,29,VALID,1.43711,
2010-07-24, 02:39:04,VALID,1002.83,VALID,0,VALID,88.3043,VALID,0.100563,VALID,24.6556,VALID,12,VALID,1.19727,
2010-07-24, 02:40:04,VALID,1002.83,VALID,0,VALID,88.3272,VALID,0.100563,VALID,24.6166,VALID,22,VALID,1.93984,
2010-07-24, 02:41:04,VALID,1002.79,VALID,0,VALID,87.8771,VALID,0,VALID,24.6361,VALID,1,VALID,1.71289,
2010-07-24, 02:42:04,VALID,1002.83,VALID,0,VALID,87.8313,VALID,0,VALID,24.6556,VALID,8,VALID,1.46211,
2010-07-24, 02:43:04,VALID,1002.82,VALID,0,VALID,87.282,VALID,0.100563,VALID,24.6556,VALID,359,VALID,2.20156,
2010-07-24, 02:44:04,VALID,1002.82,VALID,0,VALID,86.9692,VALID,0,VALID,24.675,VALID,21,VALID,2.55781,
2010-07-24, 02:45:04,VALID,1002.84,VALID,0,VALID,86.5802,VALID,0,VALID,24.6945,VALID,1,VALID,1.875,
2010-07-24, 02:46:04,VALID,1002.84,VALID,0,VALID,86.3666,VALID,0,VALID,24.6148,VALID,355,VALID,1.59766,
2010-07-24, 02:47:04,VALID,1002.83,VALID,0,VALID,86.3666,VALID,0,VALID,24.5972,VALID,355,VALID,2.11484,
2010-07-24, 02:48:04,VALID,1002.82,VALID,0,VALID,86.6641,VALID,0,VALID,24.5582,VALID,12,VALID,1.1082,
2010-07-24, 02:49:04,VALID,1002.83,VALID,0,VALID,87.0913,VALID,0,VALID,24.5388,VALID,3,VALID,2.25703,
2010-07-24, 02:50:04,VALID,1002.8,VALID,0,VALID,87.3125,VALID,0,VALID,24.5582,VALID,10,VALID,2.06094,
2010-07-24, 02:51:04,VALID,1002.8,VALID,0,VALID,87.3507,VALID,0,VALID,24.5388,VALID,360,VALID,1.66875,
2010-07-24, 02:52:04,VALID,1002.82,VALID,0,VALID,87.4193,VALID,0,VALID,24.5212,VALID,3,VALID,1.72031,
2010-07-24, 02:53:04,VALID,1002.83,VALID,0,VALID,87.5948,VALID,0,VALID,24.459,VALID,357,VALID,1.55195,
2010-07-24, 02:54:04,VALID,1002.84,VALID,0,VALID,87.8847,VALID,0,VALID,24.383,VALID,360,VALID,1.62383,
2010-07-24, 02:55:04,VALID,1002.8,VALID,0,VALID,88.0449,VALID,0,VALID,24.3849,VALID,357,VALID,1.3293,
2010-07-24, 02:56:04,VALID,1002.82,VALID,0,VALID,88.5255,VALID,0.100563,VALID,24.3812,VALID,18,VALID,1.73203,
2010-07-24, 02:57:04,VALID,1002.84,VALID,0,VALID,88.5942,VALID,0,VALID,24.4628,VALID,358,VALID,1.78516,
2010-07-24, 02:58:04,VALID,1002.81,VALID,0,VALID,88.3272,VALID,0,VALID,24.4998,VALID,27,VALID,1.02344,
2010-07-24, 02:59:04,VALID,1002.8,VALID,0,VALID,88.3577,VALID,0,VALID,24.4998,VALID,9,VALID,0.786328,
2010-07-24, 03:00:04,VALID,1002.76,VALID,0,VALID,88.7086,VALID,0,VALID,24.4414,VALID,18,VALID,0.65,
2010-07-24, 03:01:04,VALID,1002.73,VALID,0,VALID,89.4868,VALID,0,VALID,24.422,VALID,2,VALID,1.07813,
2010-07-24, 03:02:04,VALID,1002.69,VALID,0,VALID,90.0589,VALID,0,VALID,24.422,VALID,13,VALID,0.938672,
2010-07-24, 03:03:04,VALID,1002.66,VALID,0,VALID,90.9668,VALID,0.100563,VALID,24.383,VALID,350,VALID,0.773047,
2010-07-24, 03:04:04,VALID,1002.64,VALID,0,VALID,90.921,VALID,0.100563,VALID,24.383,VALID,3,VALID,1.41367,
2010-07-24, 03:05:04,VALID,1002.65,VALID,0,VALID,90.3565,VALID,0,VALID,24.3441,VALID,12,VALID,1.03828,
2010-07-24, 03:06:04,VALID,1002.68,VALID,0,VALID,90.3565,VALID,0.100563,VALID,24.3033,VALID,5,VALID,1.25234,
2010-07-24, 03:07:04,VALID,1002.71,VALID,0,VALID,90.387,VALID,0,VALID,24.2857,VALID,360,VALID,1.29883,
2010-07-24, 03:08:04,VALID,1002.76,VALID,0,VALID,89.0061,VALID,0.100563,VALID,24.2662,VALID,357,VALID,1.41484,
2010-07-24, 03:09:04,VALID,1002.74,VALID,0,VALID,88.3806,VALID,0,VALID,24.2468,VALID,2,VALID,1.25234,
2010-07-24, 03:10:04,VALID,1002.74,VALID,0,VALID,87.7703,VALID,0,VALID,24.2468,VALID,352,VALID,1.53086,
2010-07-24, 03:11:04,VALID,1002.74,VALID,0,VALID,87.8542,VALID,0,VALID,24.2857,VALID,358,VALID,1.54609,
2010-07-24, 03:12:04,VALID,1002.76,VALID,0,VALID,88.0373,VALID,0.100563,VALID,24.2857,VALID,360,VALID,1.29844,
2010-07-24, 03:13:04,VALID,1002.77,VALID,0,VALID,88.5255,VALID,0,VALID,24.2662,VALID,6,VALID,1.89922,
2010-07-24, 03:14:04,VALID,1002.77,VALID,0,VALID,88.64,VALID,0,VALID,24.2857,VALID,4,VALID,0.958203,
2010-07-24, 03:15:04,VALID,1002.8,VALID,0,VALID,88.7544,VALID,0,VALID,24.2857,VALID,354,VALID,1.02461,
2010-07-24, 03:16:04,VALID,1002.79,VALID,0,VALID,89.0214,VALID,0.100563,VALID,24.2468,VALID,350,VALID,0.998047,
2010-07-24, 03:17:04,VALID,1002.81,VALID,0,VALID,89.6012,VALID,0,VALID,24.1884,VALID,340,VALID,1.07695,
2010-07-24, 03:18:04,VALID,1002.79,VALID,0,VALID,90.3412,VALID,0,VALID,24.1494,VALID,360,VALID,1.06797,
2010-07-24, 03:19:04,VALID,1002.79,VALID,0,VALID,91.7983,VALID,0,VALID,24.091,VALID,347,VALID,1.41992,
2010-07-24, 03:20:04,VALID,1002.76,VALID,0,VALID,95.4526,VALID,0,VALID,24.0521,VALID,352,VALID,1.36094,
2010-07-24, 03:21:04,VALID,1002.73,VALID,0,VALID,99.8163,VALID,0.100563,VALID,24.0521,VALID,343,VALID,0.957422,
2010-07-24, 03:22:04,VALID,1002.75,VALID,0,VALID,103.844,VALID,0,VALID,24.0132,VALID,2,VALID,1.23281,
2010-07-24, 03:23:04,VALID,1002.76,VALID,0,VALID,104,VALID,0.100563,VALID,23.9937,VALID,360,VALID,1.24961,
2010-07-24, 03:24:04,VALID,1002.76,VALID,0,VALID,104,VALID,0,VALID,23.9937,VALID,355,VALID,1.10938,
2010-07-24, 03:25:04,VALID,1002.76,VALID,0,VALID,104,VALID,0,VALID,23.9937,VALID,358,VALID,1.2207,
2010-07-24, 03:26:04,VALID,1002.76,VALID,0,VALID,104,VALID,0.100563,VALID,24.0345,VALID,347,VALID,1.41133,
2010-07-24, 03:27:04,VALID,1002.78,VALID,0,VALID,104,VALID,0.100563,VALID,24.0326,VALID,354,VALID,1.81914,
2010-07-24, 03:28:04,VALID,1002.82,VALID,0,VALID,104,VALID,0,VALID,24.0521,VALID,3,VALID,1.25664,
2010-07-24, 03:29:04,VALID,1002.83,VALID,0,VALID,104,VALID,0,VALID,24.091,VALID,14,VALID,1.43672,
2010-07-24, 03:30:04,VALID,1002.81,VALID,0,VALID,104,VALID,0.100563,VALID,24.1884,VALID,25,VALID,1.6375,
2010-07-24, 03:31:04,VALID,1002.81,VALID,0,VALID,100.907,VALID,0,VALID,24.2468,VALID,346,VALID,1.62422,
2010-07-24, 03:32:04,VALID,1002.82,VALID,0,VALID,96.1773,VALID,0,VALID,24.2662,VALID,17,VALID,1.36289,
2010-07-24, 03:33:04,VALID,1002.78,VALID,0,VALID,93.2097,VALID,0,VALID,24.3246,VALID,5,VALID,1.13906,
2010-07-24, 03:34:04,VALID,1002.8,VALID,0,VALID,91.1422,VALID,0.100563,VALID,24.3636,VALID,21,VALID,0.897656,
2010-07-24, 03:35:04,VALID,1002.77,VALID,0,VALID,90.7074,VALID,0,VALID,24.4043,VALID,19,VALID,0.773828,
2010-07-24, 03:36:04,VALID,1002.77,VALID,0,VALID,90.1734,VALID,0.100563,VALID,24.422,VALID,39,VALID,0.580078,
2010-07-24, 03:37:04,VALID,1002.8,VALID,0,VALID,90.2802,VALID,0.100563,VALID,24.4414,VALID,48,VALID,0.384375,
2010-07-24, 03:38:04,VALID,1002.84,VALID,0,VALID,91.5771,VALID,0,VALID,24.4414,VALID,91,VALID,0.770312,
2010-07-24, 03:39:04,VALID,1002.89,VALID,0,VALID,97.0622,VALID,0,VALID,24.3617,VALID,99,VALID,1.23281,
2010-07-24, 03:40:04,VALID,1002.95,VALID,0,VALID,103.654,VALID,0.100563,VALID,24.2839,VALID,93,VALID,0.969141,
2010-07-24, 03:41:04,VALID,1003,VALID,0,VALID,104,VALID,0.100563,VALID,24.2857,VALID,95,VALID,0.597656,
2010-07-24, 03:42:04,VALID,1003.02,VALID,0,VALID,104,VALID,0,VALID,24.206,VALID,56,VALID,0.647266,
2010-07-24, 03:43:04,VALID,1003.03,VALID,0,VALID,104,VALID,0,VALID,24.1884,VALID,49,VALID,0.453125,
2010-07-24, 03:44:04,VALID,1003.03,VALID,0,VALID,104,VALID,0,VALID,24.1494,VALID,54,VALID,0.985156,
2010-07-24, 03:45:04,VALID,1003.01,VALID,0,VALID,104,VALID,0,VALID,24.1105,VALID,42,VALID,0.315234,
2010-07-24, 03:46:04,VALID,1003.01,VALID,0,VALID,104,VALID,0,VALID,24.0716,VALID,93,VALID,1.37031,